Location: Heidgraben
(53.7081°N, 9.6576°E)
Time: 10:48:00
(UTC+00:00)

Cosmos 1727 Rocket - Pass Details

Date: 05 July 2020
Orbit: 961 x 996 km, 82.9° (Epoch: 05 August)

Event Time Altitude Azimuth Distance (km) Brightness Sun altitude
Rises 23:34:46 0° 347° (NNW) 3,671 8.7 -13.6°
Reaches altitude 10° 23:37:18 10° 345° (NNW) 2,724 7.6 -13.6°
Maximum altitude 23:43:26 63° 266° (W) 1,081 4.2 -13.5°
Enters shadow 23:48:03 19° 190° (S) 2,172 5.2 -13.5°
